When you browse on this site, cookies collect data to enhance your experience and personalize the content and advertising you see.
Visit our Privacy Policy to learn more. By continuing to use the site, you agree to this use of cookies and data.
  • In Czech Republic
  • List of Countries
  • For 7 days
  • Water Temperature
  • Satellite Maps
  • Weather Map
  • Weather Widgets
  • user-avatar
    Login

    Hourly Weather Larne

    Today, 14 December, Friday

    Time Temperature Precipitation Wind Pressure Humidity
    00:00 +2°C° 0 mm 9 mps 760 mmHg 77%
    01:00 +2°C° 0.1 mm 9 mps 760 mmHg 77%
    02:00 +2°C° 0.1 mm 9 mps 760 mmHg 77%
    03:00 +2°C° 0.1 mm 9 mps 760 mmHg 77%
    04:00 +2°C° 0 mm 9 mps 760 mmHg 78%
    05:00 +2°C° 0 mm 9 mps 759 mmHg 79%
    06:00 +1°C° 0 mm 9 mps 759 mmHg 80%
    07:00 +2°C° 0 mm 9 mps 759 mmHg 80%
    08:00 +2°C° 0 mm 9 mps 759 mmHg 80%
    09:00 +2°C° 0 mm 10 mps 759 mmHg 80%
    10:00 +2°C° 0 mm 10 mps 759 mmHg 80%
    11:00 +3°C° 0 mm 10 mps 759 mmHg 80%
    12:00 +3°C° 0 mm 11 mps 759 mmHg 80%
    13:00 +3°C° 0.1 mm 11 mps 758 mmHg 81%
    14:00 +3°C° 0.1 mm 11 mps 758 mmHg 81%
    15:00 +3°C° 0.1 mm 10 mps 758 mmHg 82%
    16:00 +3°C° 0.3 mm 11 mps 757 mmHg 83%
    17:00 +3°C° 0.3 mm 11 mps 757 mmHg 83%
    18:00 +3°C° 0.3 mm 12 mps 757 mmHg 84%
    19:00 +3°C° 0.4 mm 11 mps 757 mmHg 85%
    20:00 +3°C° 0.4 mm 11 mps 756 mmHg 86%
    21:00 +4°C° 0.4 mm 11 mps 756 mmHg 87%
    22:00 +4°C° 0.2 mm 11 mps 756 mmHg 87%
    23:00 +4°C° 0.2 mm 11 mps 756 mmHg 87%

    Tomorrow, 15 December, Saturday

    Time Temperature Precipitation Wind Pressure Humidity
    00:00 +4°C° 0.2 mm 12 mps 755 mmHg 87%
    01:00 +3°C° 0.1 mm 12 mps 754 mmHg 87%
    02:00 +3°C° 0.1 mm 12 mps 754 mmHg 87%
    03:00 +3°C° 0.1 mm 12 mps 753 mmHg 87%
    04:00 +3°C° 0.7 mm 12 mps 752 mmHg 87%
    05:00 +3°C° 0.7 mm 13 mps 751 mmHg 87%
    06:00 +3°C° 0.7 mm 13 mps 750 mmHg 87%
    07:00 +3°C° 0.7 mm 13 mps 749 mmHg 87%
    08:00 +3°C° 0.7 mm 14 mps 748 mmHg 87%
    09:00 +3°C° 0.7 mm 14 mps 747 mmHg 87%
    10:00 +2°C° 0.3 mm 15 mps 746 mmHg 87%
    11:00 +4°C° 0.3 mm 15 mps 744 mmHg 87%
    12:00 +4°C° 0.3 mm 16 mps 743 mmHg 87%
    13:00 +4°C° 1.7 mm 16 mps 741 mmHg 88%
    14:00 +4°C° 1.7 mm 16 mps 739 mmHg 89%
    15:00 +4°C° 1.7 mm 16 mps 737 mmHg 89%
    16:00 +5°C° 3.1 mm 15 mps 736 mmHg 90%
    17:00 +6°C° 3.1 mm 14 mps 735 mmHg 90%
    18:00 +8°C° 3.1 mm 13 mps 734 mmHg 90%
    19:00 +7°C° 1 mm 13 mps 735 mmHg 86%
    20:00 +5°C° 1 mm 13 mps 736 mmHg 83%
    21:00 +4°C° 1 mm 13 mps 737 mmHg 79%
    22:00 +4°C° 0.2 mm 11 mps 738 mmHg 79%
    23:00 +3°C° 0.2 mm 10 mps 740 mmHg 78%

    Day after tomorrow, 16 December, Sunday

    Time Temperature Precipitation Wind Pressure Humidity
    00:00 +3°C° 0.2 mm 9 mps 741 mmHg 78%
    01:00 +3°C° 0 mm 9 mps 742 mmHg 79%
    02:00 +2°C° 0 mm 8 mps 743 mmHg 81%
    03:00 +2°C° 0 mm 8 mps 743 mmHg 82%
    04:00 +2°C° 0 mm 8 mps 744 mmHg 83%
    05:00 +2°C° 0 mm 8 mps 744 mmHg 83%
    06:00 +2°C° 0 mm 8 mps 744 mmHg 84%
    07:00 +2°C° 0 mm 8 mps 744 mmHg 84%
    08:00 +2°C° 0 mm 7 mps 744 mmHg 85%
    09:00 +2°C° 0 mm 7 mps 745 mmHg 86%
    10:00 +3°C° 0 mm 7 mps 745 mmHg 84%
    11:00 +3°C° 0 mm 7 mps 745 mmHg 82%
    12:00 +4°C° 0 mm 7 mps 745 mmHg 80%
    13:00 +4°C° 0 mm 7 mps 745 mmHg 80%
    14:00 +4°C° 0 mm 7 mps 746 mmHg 81%
    15:00 +4°C° 0 mm 7 mps 746 mmHg 81%
    16:00 +4°C° 0 mm 7 mps 746 mmHg 82%
    17:00 +4°C° 0 mm 7 mps 747 mmHg 83%
    18:00 +4°C° 0 mm 7 mps 747 mmHg 84%
    19:00 +3°C° 0 mm 6 mps 747 mmHg 85%
    20:00 +3°C° 0 mm 6 mps 748 mmHg 85%
    21:00 +3°C° 0 mm 6 mps 749 mmHg 86%
    22:00 +3°C° 0 mm 6 mps 749 mmHg 87%
    23:00 +3°C° 0 mm 6 mps 749 mmHg 88%

    17 December, Monday

    Time Temperature Precipitation Wind Pressure Humidity
    00:00 +2°C° 0 mm 5 mps 750 mmHg 89%
    01:00 +2°C° 0 mm 5 mps 750 mmHg 88%
    02:00 +2°C° 0 mm 5 mps 750 mmHg 88%
    03:00 +2°C° 0 mm 5 mps 751 mmHg 87%
    04:00 +2°C° 0 mm 5 mps 751 mmHg 88%
    05:00 +2°C° 0 mm 5 mps 751 mmHg 88%
    06:00 +2°C° 0 mm 5 mps 751 mmHg 89%
    07:00 +2°C° 0 mm 6 mps 751 mmHg 88%
    08:00 +3°C° 0 mm 7 mps 751 mmHg 86%
    09:00 +2°C° 0 mm 8 mps 751 mmHg 85%
    10:00 +3°C° 0 mm 9 mps 750 mmHg 83%
    11:00 +5°C° 0 mm 10 mps 749 mmHg 82%
    12:00 +7°C° 0 mm 12 mps 748 mmHg 80%
    13:00 +7°C° 0.3 mm 12 mps 747 mmHg 81%
    14:00 +7°C° 0.3 mm 13 mps 746 mmHg 82%
    15:00 +8°C° 0.3 mm 14 mps 745 mmHg 83%
    16:00 +8°C° 0.5 mm 14 mps 744 mmHg 84%
    17:00 +8°C° 0.5 mm 15 mps 743 mmHg 85%
    18:00 +9°C° 0.5 mm 15 mps 743 mmHg 85%
    19:00 +8°C° 1.9 mm 14 mps 742 mmHg 87%
    20:00 +8°C° 1.9 mm 13 mps 742 mmHg 89%
    21:00 +8°C° 1.9 mm 12 mps 742 mmHg 90%
    22:00 +7°C° 1.7 mm 11 mps 741 mmHg 91%
    23:00 +7°C° 1.7 mm 10 mps 741 mmHg 91%

    18 December, Tuesday

    Time Temperature Precipitation Wind Pressure Humidity
    00:00 +7°C° 1.7 mm 8 mps 740 mmHg 91%
    01:00 +7°C° 0.6 mm 8 mps 740 mmHg 90%
    02:00 +6°C° 0.6 mm 7 mps 739 mmHg 89%
    03:00 +7°C° 0.6 mm 6 mps 739 mmHg 88%
    04:00 +7°C° 1.2 mm 6 mps 738 mmHg 90%
    05:00 +5°C° 1.2 mm 6 mps 737 mmHg 91%
    06:00 +6°C° 1.2 mm 5 mps 736 mmHg 93%
    07:00 +5°C° 3.2 mm 6 mps 735 mmHg 93%
    08:00 +5°C° 3.2 mm 7 mps 735 mmHg 92%
    09:00 +5°C° 3.2 mm 8 mps 734 mmHg 92%
    10:00 +5°C° 0.4 mm 7 mps 735 mmHg 90%
    11:00 +5°C° 0.4 mm 7 mps 735 mmHg 89%
    12:00 +5°C° 0.4 mm 7 mps 736 mmHg 88%
    13:00 +5°C° 0.1 mm 7 mps 736 mmHg 87%
    14:00 +5°C° 0.1 mm 7 mps 737 mmHg 85%
    15:00 +5°C° 0.1 mm 7 mps 737 mmHg 84%
    16:00 +5°C° 0 mm 8 mps 737 mmHg 84%
    17:00 +4°C° 0 mm 8 mps 737 mmHg 84%
    18:00 +4°C° 0 mm 8 mps 737 mmHg 85%
    19:00 +4°C° 0 mm 8 mps 738 mmHg 84%
    20:00 +4°C° 0 mm 8 mps 738 mmHg 83%
    21:00 +4°C° 0 mm 8 mps 738 mmHg 83%
    22:00 +4°C° 0 mm 8 mps 738 mmHg 83%
    23:00 +3°C° 0 mm 9 mps 737 mmHg 82%

    19 December, Wednesday

    Time Temperature Precipitation Wind Pressure Humidity
    00:00 +3°C° 0 mm 9 mps 737 mmHg 82%
    01:00 +3°C° 0.1 mm 9 mps 737 mmHg 82%
    02:00 +3°C° 0.1 mm 9 mps 737 mmHg 82%
    03:00 +3°C° 0.1 mm 9 mps 736 mmHg 82%
    04:00 +3°C° 0 mm 9 mps 736 mmHg 82%
    05:00 +3°C° 0 mm 9 mps 736 mmHg 82%
    06:00 +3°C° 0 mm 9 mps 735 mmHg 82%
    07:00 +3°C° 0.4 mm 9 mps 735 mmHg 82%
    08:00 +5°C° 0.4 mm 10 mps 735 mmHg 81%
    09:00 +4°C° 0.4 mm 11 mps 735 mmHg 81%
    10:00 +5°C° 0.1 mm 10 mps 734 mmHg 82%
    11:00 +5°C° 0.1 mm 9 mps 734 mmHg 83%
    12:00 +5°C° 0.1 mm 9 mps 734 mmHg 84%
    13:00 +5°C° 0.1 mm 8 mps 733 mmHg 83%
    14:00 +5°C° 0.1 mm 8 mps 733 mmHg 83%
    15:00 +5°C° 0.1 mm 8 mps 733 mmHg 82%
    16:00 +5°C° 0.1 mm 8 mps 733 mmHg 82%
    17:00 +5°C° 0.1 mm 8 mps 733 mmHg 82%
    18:00 +3°C° 0.1 mm 9 mps 733 mmHg 83%
    19:00 +3°C° 0.1 mm 9 mps 733 mmHg 84%
    20:00 +4°C° 0.1 mm 8 mps 733 mmHg 85%
    21:00 +4°C° 0.1 mm 8 mps 733 mmHg 87%
    22:00 +4°C° 0.2 mm 8 mps 733 mmHg 88%
    23:00 +4°C° 0.2 mm 7 mps 733 mmHg 89%
    Show more